Weather History for KWJF - October, 2012

Change the Weather History Date:

Wednesday, October 3, 2012

  Actual Average Record
Temperature  
Mean Temperature 78 °F 67 °F  
Max Temperature 92 °F 84 °F 100 °F (1980)
Min Temperature 64 °F 50 °F 33 °F (1950)
Degree Days  
Heating Degree Days 0    
Month to date heating degree days 0  
Since 1 July heating degree days 0  
Cooling Degree Days 13    
Month to date cooling degree days 38  
Year to date cooling degree days 2212  
Growing Degree Days 28 (Base 50)    
Moisture  
Dew Point 34 °F    
Average Humidity 19    
Maximum Humidity 27    
Minimum Humidity 10    
Precipitation  
Precipitation 0.00 in 0.01 in 0.07 in (1968)
Month to date precipitation 0.00 0.02  
Year to date precipitation 1.74 5.27  
Since 1 July precipitation 0.04 0.36  
Snow  
Snow 0.00 in - 0.00 in ()
Month to date snowfall 0.0  
Since 1 July snowfall 0.0  
Since 1 September snowfall 0.0  
Snow Depth 0.00 in    
Sea Level Pressure  
Sea Level Pressure 29.93 in    
Wind  
Wind Speed 14 mph (WSW)    
Max Wind Speed 26 mph    
Max Gust Speed 33 mph    
Visibility 10 miles    
Events      
T = Trace of Precipitation, MM = Missing Value Source: NWS Daily Summary

Daily Weather History Graph

Daily Weather History Graph

Search for Another Location

Airport or City:

Trip Planner

Search our weather history database for the weather conditions in past years. The results will help you decide how hot, cold, wet, or windy it might be!

Date:

Astronomy

Oct. 03, 2012 Rise Set
Actual Time 6:49 AM PDT 6:33 PM PDT
Civil Twilight 6:24 AM PDT 6:58 PM PDT
Nautical Twilight 5:55 AM PDT 7:27 PM PDT
Astronomical Twilight 5:25 AM PDT 7:56 PM PDT
Moon 8:39 PM PDT (10/3) 10:07 AM PDT (10/3)
Length of Visible Light 12h 34m
Length of Day
11h 43m
Waning Gibbous, 88% of the Moon is Illuminated
Oct 3
Waning Gibbous
Oct 8
Last Quarter
Oct 15
New
Oct 21
First Quarter
Oct 29
Full

Hourly Weather History & Observations

Time (PDT) Temp. Dew Point Humidity Pressure Visibility Wind Dir Wind Speed Gust Speed Precip Events Conditions
12:56 AM 77.0 °F 33.1 °F 20% 29.87 in 10.0 mi WSW 11.5 mph - N/A   Clear
1:56 AM 73.0 °F 33.1 °F 23% 29.89 in 10.0 mi West 8.1 mph - N/A   Clear
2:56 AM 73.0 °F 32.0 °F 22% 29.88 in 10.0 mi Calm Calm - N/A   Clear
3:56 AM 70.0 °F 32.0 °F 25% 29.88 in 10.0 mi WSW 5.8 mph - N/A   Clear
4:56 AM 66.0 °F 30.0 °F 26% 29.89 in 10.0 mi Variable 3.5 mph - N/A   Clear
5:56 AM 69.1 °F 30.9 °F 24% 29.90 in 10.0 mi West 5.8 mph - N/A   Clear
6:56 AM 64.9 °F 30.9 °F 28% 29.93 in 10.0 mi West 5.8 mph - N/A   Clear
7:56 AM 75.9 °F 33.1 °F 21% 29.94 in 10.0 mi NW 5.8 mph - N/A   Clear
8:56 AM 84.9 °F 32.0 °F 15% 29.94 in 10.0 mi SW 13.8 mph 18.4 mph N/A   Clear
9:56 AM 88.0 °F 30.9 °F 13% 29.94 in 10.0 mi SW 17.3 mph 26.5 mph N/A   Clear
10:56 AM 89.1 °F 32.0 °F 13% 29.94 in 10.0 mi SW 21.9 mph 29.9 mph N/A   Clear
11:56 AM 91.0 °F 30.9 °F 12% 29.94 in 10.0 mi SW 20.7 mph 26.5 mph N/A   Clear
12:56 PM 91.0 °F 28.9 °F 11% 29.93 in 10.0 mi SW 19.6 mph 28.8 mph N/A   Clear
1:56 PM 91.0 °F 30.0 °F 11% 29.91 in 10.0 mi SW 19.6 mph 29.9 mph N/A   Clear
2:56 PM 90.0 °F 39.0 °F 17% 29.92 in 10.0 mi SW 19.6 mph 27.6 mph N/A   Clear
3:56 PM 88.0 °F 41.0 °F 19% 29.91 in 7.0 mi SW 18.4 mph 27.6 mph N/A   Clear
4:56 PM 86.0 °F 39.9 °F 20% 29.93 in 10.0 mi SW 20.7 mph 32.2 mph N/A   Clear
5:56 PM 82.0 °F 39.9 °F 22% 29.93 in 10.0 mi WSW 20.7 mph 25.3 mph N/A   Clear
6:56 PM 79.0 °F 41.0 °F 26% 29.94 in 10.0 mi WSW 17.3 mph 26.5 mph N/A   Clear
7:56 PM 75.9 °F 39.0 °F 26% 29.95 in 10.0 mi WSW 16.1 mph 23.0 mph N/A   Clear
8:56 PM 75.0 °F 33.1 °F 22% 29.96 in 10.0 mi WSW 17.3 mph - N/A   Clear
9:56 PM 73.0 °F 30.0 °F 20% 29.97 in 10.0 mi West 13.8 mph 21.9 mph N/A   Clear
10:56 PM 72.0 °F 30.0 °F 21% 29.98 in 10.0 mi WSW 11.5 mph - N/A   Clear
11:56 PM 71.1 °F 32.0 °F 24% 29.98 in 10.0 mi West 11.5 mph - N/A   Clear